Content
SEND FEEDBACK

Daily
Averages
Monthly
Summary
Canada

QUEBEC CITY, QUEBEC


Home > North America > Canada > Quebec
Elevation: 239 feet     Latitude: 46 48N     Longitude: 071 23W

WEATHER
 
SELECT A DAY
Number of Records: 192,737;   Date Range: 6/30/96 - 9/8/14
 
SHARE

PRINT THIS DATA

[ ← Previous Day ]
WEATHER ALMANAC - FEBRUARY 10, 2013
[ Next Day → ]
[ °C ]   °F
Weather ElementAverageHighLow
Temperature8.4 °F20 °F (4:00 pm)-4 °F (7:00 am)
Dewpoint-5.1 °F2 °F (4:00 pm)-11.2 °F (1:00 am)
Humidity51.8 %73 % (7:00 am)31 % (4:00 pm)
Barometer30.37 in30.44 in (9:00 am)30.32 in (1:00 am)
Wind Speed7.6 mph18.4 mph (12:00 pm)
Wind Gust17.3 mph (4:00 pm)
Weather ElementAverage
Visibility22.2 mi
Wind DirectionSW (223.9 °)

Weather ElementTotal
Precipitation---
Heating Degree Days57 (Base 65)
Averaged from 31 records on February 10, 2013
WEATHER CONDITIONS BREAKOUT
WIND DIRECTION BREAKOUT
WEATHER BY HOUR - FEBRUARY 10, 2013
[ °C ]   °F
Local TimeTemperatureDewpointHumidityBarometerVisibilityWind DirectionWind SpeedGust SpeedPrecipitationEventsConditions
1:00 AM6.0 °F-5.0 °F46 %30.32 inWest (270°)4.6 mph
1:00 AM3.2 °F-11.2 °F51 %30.32 in15.0 miWNW (290°)4.6 mphClear
2:00 AM1.4 °F-11.2 °F56 %30.32 in15.0 miWSW (250°)3.5 mphClear
3:00 AM-0.4 °F-11.2 °F60 %30.32 in15.0 miSouth (170°)4.6 mphClear
4:00 AM-1.0 °F-7.0 °F62 %30.32 inWSW (250°)4.6 mph
4:00 AM3.2 °F-9.4 °F56 %30.32 in15.0 miSW (220°)6.9 mphClear
5:00 AM1.4 °F-9.4 °F61 %30.35 in15.0 miSW (230°)6.9 mphClear
6:00 AM-0.4 °F-11.2 °F60 %30.38 in15.0 miSW (230°)5.8 mphPartly Cloudy
7:00 AM-4.0 °F-8.0 °F73 %30.40 inWSW (240°)3.5 mph
7:00 AM-0.4 °F-9.4 °F66 %30.40 in30.0 miSW (220°)8.1 mphPartly Cloudy
8:00 AM-0.4 °F-9.4 °F66 %30.43 in30.0 miSW (230°)6.9 mphPartly Cloudy
9:00 AM3.2 °F-7.6 °F61 %30.44 in30.0 miSW (230°)8.1 mphPartly Cloudy
10:00 AM6.0 °F-4.0 °F50 %30.44 inSW (230°)4.6 mph
10:00 AM6.8 °F-5.8 °F56 %30.44 in30.0 miSW (230°)11.5 mphPartly Cloudy
11:00 AM8.6 °F-4.0 °F57 %30.44 in30.0 miSW (220°)13.8 mphPartly Cloudy
12:00 PM12.2 °F-4.0 °F48 %30.41 in30.0 miSW (220°)18.4 mphPartly Cloudy
1:00 PM15.0 °F1.0 °F38 %30.39 inSW (220°)8.1 mph
1:00 PM15.8 °F-2.2 °F45 %30.40 in30.0 miSW (220°)15.0 mphPartly Cloudy
2:00 PM17.6 °F-0.4 °F45 %30.37 in30.0 miSW (220°)15.0 mphPartly Cloudy
3:00 PM19.4 °F-0.4 °F42 %30.35 in30.0 miSW (220°)16.1 mphPartly Cloudy
4:00 PM20.0 °F2.0 °F31 %30.35 inSW (220°)6.9 mph
4:00 PM19.4 °F-2.2 °F39 %30.35 in30.0 miSSW (210°)11.5 mph17.3 mphPartly Cloudy
5:00 PM17.6 °F-4.0 °F38 %30.37 in30.0 miWSW (250°)12.7 mphPartly Cloudy
6:00 PM15.8 °F-4.0 °F41 %30.38 in15.0 miWSW (240°)9.2 mphClear
7:00 PM16.0 °F0.0 °F33 %30.37 inWest (260°)9.2 mph
7:00 PM14.0 °F-2.2 °F49 %30.37 in15.0 miWest (270°)8.1 mphClear
8:00 PM14.0 °F-2.2 °F49 %30.38 in15.0 miCalmClear
9:00 PM10.4 °F-4.0 °F52 %30.35 in15.0 miWSW (240°)2.3 mphClear
10:00 PM4.0 °F-2.0 °F63 %30.33 inWest (280°)3.5 mph
10:00 PM8.6 °F-4.0 °F57 %30.34 in15.0 miCalmClear
11:00 PM6.8 °F-5.8 °F56 %30.33 in15.0 miNorth (360°)2.3 mphClear
Hourly data recorded from CYQB, located miles away from Quebec City, Quebec







STORIES FROM OUR PARTNERS